Regional Weather Roundup
Issued by NWS Upton, NY

Current Version | Previous Version | Text Only | Print | Product List | Glossary On
Versions: 1 2 3 4 5 6 7 8 9 10 11 12 13 14 15 16 17 18 19 20 21 22 23 24 25 26 27 28 29 30 31 32 33 34 35 36 37 38 39 40 41 42 43 44 45 46 47 48
000 ASUS41 KOKX 241305 RWROKX REGIONAL WEATHER ROUNDUP NATIONAL WEATHER SERVICE NEW YORK NY 800 AM EST SAT JAN 24 2015 NOTE: "FAIR" INDICATES FEW OR NO CLOUDS BELOW 12,000 FEET WITH NO SIGNIFICANT WEATHER AND/OR OBSTRUCTIONS TO VISIBILITY. NYZ071-072-176-178-NJZ106-104-241400- NEW YORK CITY METRO AREA CITY SKY/WX TMP DP RH WIND PRES REMARKS CENTRAL PARK MIX PCPN 33 30 88 NE6 29.60F FOG WCI 28 LAGUARDIA APRT LGT SNOW 33 31 92 NE8 29.60F FOG WCI 26 KENNEDY INTL LGT RAIN 34 31 88 NE7 29.61F FOG WCI 28 NEWARK/LIBERTY LGT RAIN 33 32 96 N10 29.61F FOG WCI 25 BRNX BOT. GARD N/A 32 32 100 SE2 29.60F TETERBORO LGT RAIN 34 30 86 N6 29.60F FOG WCI 29 $$ NYZ177-179-078>081-241400- LONG ISLAND NEW YORK CITY SKY/WX TMP DP RH WIND PRES REMARKS FARMINGDALE LGT RAIN 34 32 92 NE7 29.60F FOG WCI 28 ISLIP LGT RAIN 33 31 92 NE9 29.58F FOG WCI 25 SHIRLEY RAIN 33 32 96 VRB5 29.60F FOG WCI 29 WESTHAMPTON RAIN 33 31 92 NE12 29.62F FOG WCI 24 MONTAUK POINT N/A 36 33 89 NE8 29.63F WCI 30 $$ NYZ052-065-067-241400- HUDSON VALLEY CITY SKY/WX TMP DP RH WIND PRES REMARKS WHITE PLAINS FRZ RAIN 33 30 88 N6 29.59F FOG WCI 28 NEWBURGH LGT SNOW 30 30 100 NE8 29.64F WCI 23 MONTGOMERY LGT SNOW 31 29 92 N6 29.61F VSB 1 WCI 25 POUGHKEEPSIE LGT SNOW 32 29 88 N3 29.64F FOG ALBANY LGT SNOW 27 23 85 N3 29.67F FOG $$ NJZ001-105-106-008-010-013-015-019>022-104-241400- NEW JERSEY CITY SKY/WX TMP DP RH WIND PRES REMARKS NEWARK/LIBERTY LGT RAIN 33 32 96 N10 29.61F FOG WCI 25 TETERBORO LGT RAIN 34 30 86 N6 29.60F FOG WCI 29 CALDWELL FRZ RAIN 32 31 96 VRB3 29.61F FOG MORRISTOWN LGT SNOW 32 30 93 NE3 29.62F SOMERVILLE LGT RAIN 33 30 88 VRB5 29.57F FOG WCI 29 SUSSEX LGT SNOW 31 28 89 NE3 29.61F FOG ANDOVER N/A 30 29 96 VRB6 29.58F WCI 24 TRENTON CLOUDY 33 31 92 NE9G18 29.55F FOG WCI 25 MILLVILLE LGT RAIN N/A N/A N/A NE8 29.53F ATLANTIC CITY CLOUDY 36 34 92 NE14 29.48F WCI 27 WRIGHTSTOWN CLOUDY 32 32 100 NE12 29.51F FOG WCI 23 TOMS RIVER CLOUDY 34 32 93 NE13 29.53F WCI 25 BELMAR CLOUDY 34 28 80 NE12 29.56F WCI 25 $$ PAZ047>061-062-071-241400- EASTERN PENNSYLVANIA CITY SKY/WX TMP DP RH WIND PRES REMARKS PHILADELPHIA LGT RAIN 34 32 92 NE13 29.55F FOG WCI 25 ALLENTOWN LGT SNOW 32 29 88 N5 29.59F FOG WCI 27 SCRANTON SNOW 30 27 88 NE7 29.56F VSB 1/2 WCI 23 $$ CTZ002-004>006-009-010-012-RIZ004-006-007-MAZ004-011-015-241400- SOUTHERN NEW ENGLAND IN CT CITY SKY/WX TMP DP RH WIND PRES REMARKS BRADLEY INTL SNOW 32 30 92 N6 29.66F VSB 1/2 WCI 26 HARTFORD SNOW 32 31 96 VRB6 29.66F VSB 1/2 WCI 26 DANBURY MIX PCPN 31 27 85 NE5 29.62F FOG WCI 26 WTRBRY/OXFORD LGT SNOW 30 25 80 NE9 29.59F VSB 1 WCI 22 BRIDGEPORT LGT RAIN 33 32 96 NE10 29.61F FOG WCI 25 MERIDEN FRZ RAIN 32 30 92 N6 29.63F FOG WCI 26 NEW HAVEN LGT RAIN 33 31 92 NE8 29.61F FOG WCI 26 CHESTER RAIN 32 32 100 NE6 29.61F WCI 26 GROTON MIX PCPN 32 32 100 NE6 29.63F FOG WCI 26 WILLIMANTIC SNOW 32 30 92 NE6 29.65F VSB 1/2 WCI 26 IN RI CITY SKY/WX TMP DP RH WIND PRES REMARKS PROVIDENCE LGT SNOW 32 31 96 N12 29.67F VSB 1 WCI 23 BLOCK ISLAND CLOUDY 36 30 80 NE9 29.63F WCI 29 WESTERLY LGT RAIN 33 32 96 NE6 29.64F FOG WCI 28 IN MA CITY SKY/WX TMP DP RH WIND PRES REMARKS BOSTON SNOW 32 31 96 E3 29.71F VSB 1/4 WORCESTER SNOW 28 27 96 NE3 29.64F VSB 1/2 WESTFIELD HVY SNOW 30 28 92 N6 29.66F VSB 1/4 WCI 24 PROVINCETOWN CLOUDY 32 30 93 CALM 29.72F NANTUCKET RAIN 35 33 92 NE9 29.69F FOG WCI 28 $$ ANZ330-335-338-340-345-350-353-355-241400- COASTAL MARINE OBSERVATIONS STATION/POSITION TIME SKY/WX TEMP WIND PRES VSBY WAVE AIR SEA DIR/SP/G HT/PER (UTC) (F) (DEG/KT/KT) (MB) (MI) (FT/S) NY HARB ENTRANCE 1300 36 42 50/ 19/ 23 1000.8 3/ 4 4S FIRE IS 1300 38 N/A 2/10 20S FIRE ISLAND 1200 41 1002.9 3/10 23SW MTP 1300 N/A 3/ 3 HUDSON CANYON NOT AVBL EXECUTION ROCKS 1300 34 34 60/ 12/ 14 N/A WESTERN LI SOUND 1300 34 50/ 12/ 14 N/A 1/ 3 CENTRAL LI SOUND 1200 34 36 40/ 12/ 14 N/A 1 EASTERN LI SOUND NOT AVBL ROBBINS REEF 1300 34 360/ 7/ 9 1001.1 $$ >>>>>>>>>>>>>>>>>>>>>>>>>>>> KEY <<<<<<<<<<<<<<<<<<<<<<<<<<< > < > SKY/WX - SKY CONDITION/PRESENT WEATHER < > TMP - TEMPERATURE IN FAHRENHEIT < > DP - DEWPOINT IN FAHRENHEIT < > RH - RELATIVE HUMIDITY IN PERCENT < > WIND - DIRECTION AND SPEED IN MPH < > PRES - MEAN SEA LEVEL PRESSURE IN INCHES OF HG < > WCI - WIND CHILL INDEX < > VSB - VISIBILITY IN MILES < > HX - HEAT INDEX < > TC - TEMPERATURE IN CELSIUS < > VRB - VARIABLE WIND DIRECTION < > < >>>>>>>>>>>>>>>>>>>>>>>>>>>> KEY <<<<<<<<<<<<<<<<<<<<<<<<<<<

USA.gov is the U.S. government's official web portal to all federal, state and local government web resources and services.